When you browse on this site, cookies collect data to enhance your experience and personalize the content and advertising you see.
Visit our Privacy Policy to learn more. By continuing to use the site, you agree to this use of cookies and data.
  • In Hungary
  • List of Countries
  • For 7 days
  • Water Temperature
  • Satellite Maps
  • Weather Map
  • News
  • Weather Widgets
  • user-avatar
    Login

    Hourly Weather Ipswich

    Today, 16 February, Saturday

    Time Temperature Precipitation Wind Pressure Humidity
    00:00 +5°C° 0 mm 4 mps 766 mmHg 80%
    01:00 +5°C° 0 mm 4 mps 766 mmHg 82%
    02:00 +5°C° 0 mm 4 mps 766 mmHg 85%
    03:00 +5°C° 0 mm 4 mps 765 mmHg 87%
    04:00 +5°C° 0 mm 4 mps 765 mmHg 89%
    05:00 +5°C° 0 mm 4 mps 765 mmHg 90%
    06:00 +5°C° 0 mm 4 mps 765 mmHg 92%
    07:00 +6°C° 0 mm 4 mps 766 mmHg 92%
    08:00 +7°C° 0 mm 4 mps 766 mmHg 91%
    09:00 +7°C° 0 mm 4 mps 766 mmHg 91%
    10:00 +9°C° 0 mm 5 mps 766 mmHg 87%
    11:00 +10°C° 0 mm 5 mps 766 mmHg 83%
    12:00 +13°C° 0 mm 5 mps 766 mmHg 79%
    13:00 +12°C° 0 mm 5 mps 766 mmHg 80%
    14:00 +12°C° 0 mm 4 mps 765 mmHg 81%
    15:00 +12°C° 0 mm 4 mps 765 mmHg 82%
    16:00 +11°C° 0 mm 4 mps 765 mmHg 85%
    17:00 +11°C° 0 mm 4 mps 765 mmHg 87%
    18:00 +10°C° 0 mm 4 mps 765 mmHg 90%
    19:00 +10°C° 0 mm 4 mps 765 mmHg 92%
    20:00 +8°C° 0 mm 4 mps 765 mmHg 94%
    21:00 +7°C° 0 mm 4 mps 765 mmHg 96%
    22:00 +7°C° 0 mm 4 mps 765 mmHg 95%
    23:00 +7°C° 0 mm 4 mps 764 mmHg 94%

    Tomorrow, 17 February, Sunday

    Time Temperature Precipitation Wind Pressure Humidity
    00:00 +6°C° 0 mm 4 mps 764 mmHg 92%
    01:00 +6°C° 0 mm 4 mps 764 mmHg 92%
    02:00 +6°C° 0 mm 4 mps 763 mmHg 93%
    03:00 +6°C° 0 mm 4 mps 762 mmHg 93%
    04:00 +6°C° 0 mm 5 mps 762 mmHg 92%
    05:00 +6°C° 0 mm 5 mps 762 mmHg 92%
    06:00 +6°C° 0 mm 5 mps 761 mmHg 92%
    07:00 +7°C° 0 mm 6 mps 761 mmHg 88%
    08:00 +7°C° 0 mm 6 mps 761 mmHg 84%
    09:00 +8°C° 0 mm 6 mps 761 mmHg 79%
    10:00 +9°C° 0 mm 7 mps 760 mmHg 75%
    11:00 +10°C° 0 mm 7 mps 760 mmHg 71%
    12:00 +11°C° 0 mm 8 mps 760 mmHg 67%
    13:00 +11°C° 0 mm 7 mps 760 mmHg 68%
    14:00 +11°C° 0 mm 7 mps 759 mmHg 69%
    15:00 +11°C° 0 mm 7 mps 759 mmHg 70%
    16:00 +10°C° 0 mm 6 mps 759 mmHg 76%
    17:00 +10°C° 0 mm 6 mps 760 mmHg 81%
    18:00 +9°C° 0 mm 6 mps 760 mmHg 87%
    19:00 +9°C° 0 mm 5 mps 760 mmHg 88%
    20:00 +9°C° 0 mm 5 mps 760 mmHg 90%
    21:00 +8°C° 0 mm 5 mps 760 mmHg 92%
    22:00 +8°C° 0 mm 5 mps 760 mmHg 92%
    23:00 +8°C° 0 mm 4 mps 760 mmHg 92%

    Day after tomorrow, 18 February, Monday

    Time Temperature Precipitation Wind Pressure Humidity
    00:00 +8°C° 0 mm 4 mps 760 mmHg 93%
    01:00 +8°C° 0 mm 4 mps 760 mmHg 91%
    02:00 +9°C° 0 mm 3 mps 760 mmHg 90%
    03:00 +9°C° 0 mm 3 mps 760 mmHg 88%
    04:00 +8°C° 0 mm 3 mps 760 mmHg 88%
    05:00 +7°C° 0 mm 4 mps 760 mmHg 88%
    06:00 +7°C° 0 mm 4 mps 760 mmHg 87%
    07:00 +8°C° 0 mm 4 mps 760 mmHg 87%
    08:00 +8°C° 0 mm 4 mps 760 mmHg 86%
    09:00 +8°C° 0 mm 5 mps 760 mmHg 86%
    10:00 +8°C° 0.1 mm 5 mps 759 mmHg 83%
    11:00 +9°C° 0.1 mm 5 mps 759 mmHg 81%
    12:00 +9°C° 0.1 mm 5 mps 759 mmHg 79%
    13:00 +9°C° 0.2 mm 5 mps 759 mmHg 80%
    14:00 +8°C° 0.2 mm 5 mps 758 mmHg 81%
    15:00 +8°C° 0.2 mm 5 mps 758 mmHg 82%
    16:00 +8°C° 0 mm 5 mps 758 mmHg 82%
    17:00 +8°C° 0 mm 5 mps 758 mmHg 82%
    18:00 +7°C° 0 mm 5 mps 758 mmHg 82%
    19:00 +7°C° 0 mm 5 mps 759 mmHg 82%
    20:00 +6°C° 0 mm 5 mps 759 mmHg 83%
    21:00 +6°C° 0 mm 5 mps 759 mmHg 83%
    22:00 +5°C° 0 mm 5 mps 759 mmHg 83%
    23:00 +5°C° 0 mm 5 mps 759 mmHg 84%

    19 February, Tuesday

    Time Temperature Precipitation Wind Pressure Humidity
    00:00 +3°C° 0 mm 5 mps 760 mmHg 84%
    01:00 +3°C° 0 mm 5 mps 760 mmHg 84%
    02:00 +3°C° 0 mm 5 mps 760 mmHg 83%
    03:00 +2°C° 0 mm 5 mps 760 mmHg 83%
    04:00 +2°C° 0 mm 5 mps 760 mmHg 84%
    05:00 +2°C° 0 mm 5 mps 760 mmHg 84%
    06:00 +2°C° 0 mm 5 mps 760 mmHg 85%
    07:00 +3°C° 0 mm 6 mps 761 mmHg 83%
    08:00 +3°C° 0 mm 6 mps 761 mmHg 80%
    09:00 +4°C° 0 mm 6 mps 761 mmHg 78%
    10:00 +5°C° 0 mm 6 mps 761 mmHg 72%
    11:00 +6°C° 0 mm 7 mps 762 mmHg 67%
    12:00 +8°C° 0 mm 7 mps 762 mmHg 62%
    13:00 +8°C° 0 mm 6 mps 761 mmHg 62%
    14:00 +8°C° 0 mm 6 mps 761 mmHg 62%
    15:00 +9°C° 0 mm 6 mps 761 mmHg 62%
    16:00 +8°C° 0 mm 6 mps 761 mmHg 67%
    17:00 +7°C° 0 mm 5 mps 761 mmHg 72%
    18:00 +6°C° 0 mm 5 mps 761 mmHg 77%
    19:00 +5°C° 0 mm 6 mps 761 mmHg 78%
    20:00 +5°C° 0 mm 6 mps 761 mmHg 80%
    21:00 +5°C° 0 mm 7 mps 761 mmHg 82%
    22:00 +5°C° 0 mm 7 mps 761 mmHg 82%
    23:00 +5°C° 0 mm 7 mps 760 mmHg 82%

    20 February, Wednesday

    Time Temperature Precipitation Wind Pressure Humidity
    00:00 +6°C° 0 mm 7 mps 760 mmHg 82%
    01:00 +6°C° 0 mm 7 mps 760 mmHg 83%
    02:00 +6°C° 0 mm 7 mps 760 mmHg 83%
    03:00 +6°C° 0 mm 7 mps 760 mmHg 84%
    04:00 +6°C° 0.1 mm 7 mps 760 mmHg 84%
    05:00 +6°C° 0.1 mm 7 mps 760 mmHg 85%
    06:00 +6°C° 0.1 mm 7 mps 759 mmHg 86%
    07:00 +6°C° 0.1 mm 7 mps 760 mmHg 85%
    08:00 +8°C° 0.1 mm 7 mps 760 mmHg 85%
    09:00 +8°C° 0.1 mm 7 mps 761 mmHg 84%
    10:00 +8°C° 0 mm 7 mps 761 mmHg 81%
    11:00 +9°C° 0 mm 7 mps 761 mmHg 78%
    12:00 +10°C° 0 mm 7 mps 761 mmHg 75%
    13:00 +10°C° 0 mm 7 mps 761 mmHg 75%
    14:00 +10°C° 0 mm 7 mps 761 mmHg 74%
    15:00 +10°C° 0 mm 7 mps 761 mmHg 74%
    16:00 +9°C° 0 mm 7 mps 761 mmHg 77%
    17:00 +9°C° 0 mm 7 mps 761 mmHg 81%
    18:00 +8°C° 0 mm 6 mps 761 mmHg 84%
    19:00 +8°C° 0 mm 6 mps 761 mmHg 84%
    20:00 +9°C° 0 mm 6 mps 762 mmHg 85%
    21:00 +9°C° 0 mm 6 mps 762 mmHg 85%
    22:00 +9°C° 0 mm 6 mps 762 mmHg 86%
    23:00 +9°C° 0 mm 6 mps 762 mmHg 87%

    21 February, Thursday

    Time Temperature Precipitation Wind Pressure Humidity
    00:00 +9°C° 0 mm 5 mps 763 mmHg 88%
    01:00 +9°C° 0 mm 5 mps 763 mmHg 88%
    02:00 +9°C° 0 mm 5 mps 763 mmHg 89%
    03:00 +9°C° 0 mm 5 mps 763 mmHg 90%
    04:00 +9°C° 0 mm 5 mps 763 mmHg 90%
    05:00 +9°C° 0 mm 5 mps 763 mmHg 91%
    06:00 +9°C° 0 mm 5 mps 764 mmHg 92%
    07:00 +9°C° 0 mm 5 mps 764 mmHg 91%
    08:00 +9°C° 0 mm 5 mps 764 mmHg 90%
    09:00 +10°C° 0 mm 5 mps 765 mmHg 89%
    10:00 +10°C° 0 mm 5 mps 765 mmHg 87%
    11:00 +10°C° 0 mm 5 mps 765 mmHg 85%
    12:00 +12°C° 0 mm 5 mps 766 mmHg 84%
    13:00 +12°C° 0 mm 4 mps 766 mmHg 82%
    14:00 +12°C° 0 mm 4 mps 766 mmHg 81%
    15:00 +13°C° 0 mm 3 mps 766 mmHg 80%
    16:00 +12°C° 0 mm 3 mps 766 mmHg 82%
    17:00 +11°C° 0 mm 3 mps 767 mmHg 85%
    18:00 +12°C° 0 mm 2 mps 767 mmHg 87%
    19:00 +10°C° 0 mm 3 mps 768 mmHg 88%
    20:00 +10°C° 0 mm 3 mps 768 mmHg 88%
    21:00 +9°C° 0 mm 3 mps 769 mmHg 89%
    22:00 +9°C° 0 mm 3 mps 769 mmHg 89%
    23:00 +8°C° 0 mm 2 mps 770 mmHg 89%
    Show more